Weather History for Fond du Lac, WI

Change the Weather History Date:

Friday, November 22, 2013

  Actual Average Record
Temperature  
Mean Temperature 31 °F -  
Max Temperature 37 °F 41 °F 62 °F (2012)
Min Temperature 25 °F 26 °F 6 °F (1964)
Degree Days  
Heating Degree Days 34    
Moisture  
Dew Point 25 °F    
Average Humidity 78    
Maximum Humidity 93    
Minimum Humidity 52    
Precipitation  
Precipitation 0.02 in - - ()
Sea Level Pressure  
Sea Level Pressure 30.38 in    
Wind  
Wind Speed 12 mph (NNW)    
Max Wind Speed 16 mph    
Max Gust Speed 23 mph    
Visibility 7 miles    
Events Rain , Snow    
Averages and records for this station are not official NWS values.
T = Trace of Precipitation, MM = Missing Value Source: NWS Daily Summary

Daily Weather History Graph

Daily Weather History Graph

Search for Another Location

Airport:

Trip Planner

Search our weather history database for the weather conditions in past years. The results will help you decide how hot, cold, wet, or windy it might be!

Date:

Astronomy

Nov. 22, 2013 Rise Set
Actual Time 6:57 AM CST 4:22 PM CST
Civil Twilight 6:25 AM CST 4:54 PM CST
Nautical Twilight 5:50 AM CST 5:29 PM CST
Astronomical Twilight 5:16 AM CST 6:03 PM CST
Moon 8:57 PM CST (11/22) 10:38 AM CST (11/22)
Length of Visible Light 10h 28m
Length of Day
9h 24m
Waning Gibbous, 78% of the Moon is Illuminated
Nov 22
Waning Gibbous
Nov 25
Last Quarter
Dec 2
New
Dec 9
First Quarter
Dec 17
Full

Hourly Weather History & Observations

Time (CST) Temp. Windchill Dew Point Humidity Pressure Visibility Wind Dir Wind Speed Gust Speed Precip Events Conditions
12:17 AM 37.0 °F 28.5 °F 33.1 °F 86% 30.24 in 8.0 mi NNW 13.8 mph - 0.00 in Rain Light Rain
12:53 AM 36.0 °F 27.1 °F 33.1 °F 89% 30.27 in 10.0 mi NNW 13.8 mph - 0.00 in   Overcast
1:02 AM 35.1 °F 25.9 °F 32.0 °F 89% 30.25 in 10.0 mi NNW 13.8 mph - N/A   Overcast
1:29 AM 35.1 °F 26.4 °F 30.9 °F 85% 30.27 in 10.0 mi North 12.7 mph - N/A   Overcast
1:53 AM 35.1 °F 26.9 °F 30.9 °F 85% 30.31 in 10.0 mi NNW 11.5 mph 19.6 mph N/A   Overcast
2:49 AM 33.8 °F 24.8 °F 30.2 °F 87% 30.30 in 2.5 mi North 12.7 mph - 0.00 in Snow Light Snow
2:53 AM 33.1 °F 24.4 °F 28.9 °F 85% 30.33 in 2.5 mi North 11.5 mph - 0.00 in Snow Light Snow
3:07 AM 33.1 °F 23.0 °F 28.9 °F 85% 30.31 in 2.5 mi North 15.0 mph - 0.01 in Snow Light Snow
3:34 AM 32.0 °F 23.6 °F 30.0 °F 92% 30.31 in 1.5 mi North 10.4 mph - 0.01 in Snow Light Snow
3:45 AM 32.0 °F 21.6 °F 30.0 °F 92% 30.33 in 1.2 mi NNW 15.0 mph - 0.01 in Snow Light Snow
3:53 AM 32.0 °F 21.6 °F 28.9 °F 88% 30.35 in 1.8 mi North 15.0 mph - 0.01 in Snow Light Snow
4:07 AM 32.0 °F 23.0 °F 28.9 °F 88% 30.33 in 1.2 mi North 11.5 mph - 0.00 in Snow Light Snow
4:18 AM 30.9 °F 21.2 °F 28.9 °F 92% 30.33 in 1.5 mi North 12.7 mph - 0.01 in Snow Light Snow
4:28 AM 30.9 °F 21.2 °F 28.0 °F 89% 30.33 in 1.0 mi North 12.7 mph 21.9 mph 0.01 in Snow Light Snow
4:40 AM 30.9 °F 21.2 °F 28.0 °F 89% 30.34 in 2.0 mi North 12.7 mph 20.7 mph 0.01 in Snow Light Snow
4:51 AM 30.2 °F 20.8 °F 28.4 °F 93% 30.34 in 2.5 mi North 11.5 mph - 0.01 in Snow Light Snow
4:53 AM 30.9 °F 21.7 °F 28.0 °F 89% 30.36 in 2.5 mi North 11.5 mph - 0.01 in Snow Light Snow
5:00 AM 30.0 °F 19.1 °F 27.0 °F 88% 30.34 in 4.0 mi North 15.0 mph 20.7 mph 0.00 in Snow Light Snow
5:17 AM 30.0 °F 19.5 °F 27.0 °F 88% 30.34 in 1.8 mi North 13.8 mph - 0.00 in Snow Light Snow
5:21 AM 30.0 °F 18.7 °F 27.0 °F 88% 30.34 in 2.0 mi North 16.1 mph 21.9 mph 0.00 in Snow Light Snow
5:27 AM 30.0 °F 19.5 °F 26.1 °F 85% 30.35 in 3.0 mi North 13.8 mph 23.0 mph 0.00 in Snow Light Snow
5:53 AM 30.0 °F 18.7 °F 25.0 °F 82% 30.39 in 10.0 mi North 16.1 mph - 0.00 in   Overcast
6:11 AM 30.0 °F 20.0 °F 26.1 °F 85% 30.37 in 4.0 mi NNW 12.7 mph - 0.00 in Snow Light Snow
6:53 AM 28.9 °F 18.6 °F 25.0 °F 85% 30.41 in 7.0 mi NNW 12.7 mph - 0.00 in Snow Light Snow
7:53 AM 28.9 °F 18.2 °F 24.1 °F 82% 30.45 in 10.0 mi NNW 13.8 mph - 0.00 in   Overcast
8:53 AM 28.9 °F 18.2 °F 24.1 °F 82% 30.47 in 10.0 mi NNW 13.8 mph - N/A   Mostly Cloudy
9:53 AM 30.0 °F 19.5 °F 21.9 °F 72% 30.48 in 10.0 mi NNW 13.8 mph - N/A   Partly Cloudy
10:53 AM 30.9 °F 20.7 °F 21.9 °F 69% 30.48 in 10.0 mi NNW 13.8 mph - N/A   Scattered Clouds
11:53 AM 33.1 °F 25.5 °F 21.9 °F 64% 30.45 in 10.0 mi NNW 9.2 mph - N/A   Clear
12:53 PM 34.0 °F 26.0 °F 21.9 °F 61% 30.45 in 10.0 mi NW 10.4 mph - N/A   Clear
1:53 PM 35.1 °F 27.4 °F 21.9 °F 59% 30.47 in 10.0 mi WNW 10.4 mph - N/A   Clear
2:53 PM 34.0 °F 26.0 °F 19.9 °F 56% 30.46 in 10.0 mi WNW 10.4 mph - N/A   Clear
3:53 PM 33.1 °F 26.9 °F 17.1 °F 52% 30.47 in 10.0 mi West 6.9 mph - N/A   Clear
4:53 PM 30.0 °F 24.1 °F 18.0 °F 61% 30.46 in 10.0 mi WSW 5.8 mph - N/A   Clear
5:53 PM 28.0 °F 22.8 °F 17.1 °F 63% 30.45 in 10.0 mi WSW 4.6 mph - N/A   Clear
6:53 PM 27.0 °F 20.5 °F 17.1 °F 66% 30.44 in 10.0 mi WSW 5.8 mph - N/A   Clear
7:53 PM 25.0 °F 20.7 °F 16.0 °F 69% 30.44 in 10.0 mi SW 3.5 mph - N/A   Clear
8:53 PM 25.0 °F 19.3 °F 15.1 °F 66% 30.43 in 10.0 mi SW 4.6 mph - N/A   Clear
9:53 PM 25.0 °F 18.1 °F 12.9 °F 60% 30.42 in 10.0 mi WSW 5.8 mph - N/A   Clear
10:53 PM 25.0 °F 19.3 °F 12.9 °F 60% 30.42 in 10.0 mi WSW 4.6 mph - N/A   Clear
11:53 PM 25.0 °F 15.5 °F 12.0 °F 58% 30.41 in 10.0 mi West 9.2 mph - N/A   Mostly Cloudy